Dades meteomassalio
Diari Summary for Maig 31, 2017 Units:  Metric    English   Both
« Previous Day
Next Day »
Diari Semanal Mensual Anual Personalitzat
  Maxima: Minima: Mijana:
Temperatura: 29.2 °C 13.4 °C 21 °C
Rosada: 15.1 °C 10.3 °C 12.6 °C
Humitat: 86 % 32 % 62 %
Velocitat del vent: 33.3 km/h 0.0 km/h 5.8 km/h
Racha vent: 33.3 km/h - -
Vent:- - SSE
Pressio: 1019.5 hPa 1015.5 hPa -
Pluja: 0.0 mm    
Historical Graphs
 
 
Tabular Data for Maig 31, 2017
Time Temperature Dew Point Pressure Wind Wind Speed Wind Gust Humidity Rainfall Rate (Hourly) solar Conditions
00:00 17.9 °C 12.4 °C 1017.8 hPa Calm     70 % 0.0 mm 0.0 W/m2 CLR
00:05 17.7 °C 12.3 °C 1017.8 hPa Calm     71 % 0.0 mm 0.0 W/m2 CLR
00:06 17.6 °C 12.3 °C 1017.8 hPa Calm     71 % 0.0 mm 0.0 W/m2 CLR
00:11 17.3 °C 12.2 °C 1017.8 hPa Calm     72 % 0.0 mm 0.0 W/m2 CLR
00:16 17.1 °C 12.2 °C 1017.8 hPa Calm     73 % 0.0 mm 0.0 W/m2 CLR
00:21 16.9 °C 12.2 °C 1017.8 hPa Calm     74 % 0.0 mm 0.0 W/m2 CLR
00:26 16.7 °C 12.1 °C 1017.8 hPa Calm     74 % 0.0 mm 0.0 W/m2 CLR
00:31 16.6 °C 12.1 °C 1017.8 hPa Calm     75 % 0.0 mm 0.0 W/m2 CLR
00:36 16.5 °C 12.1 °C 1017.8 hPa Calm     75 % 0.0 mm 0.0 W/m2 CLR
00:41 16.4 °C 12.2 °C 1017.8 hPa Calm     76 % 0.0 mm 0.0 W/m2 CLR
00:46 16.3 °C 12.1 °C 1017.8 hPa Calm     76 % 0.0 mm 0.0 W/m2 CLR
00:51 16.1 °C 11.7 °C 1017.8 hPa Calm     75 % 0.0 mm 0.0 W/m2 CLR
00:56 16.0 °C 11.9 °C 1017.8 hPa Calm     77 % 0.0 mm 0.0 W/m2 CLR
01:01 15.9 °C 11.8 °C 1017.8 hPa Calm     77 % 0.0 mm 0.0 W/m2 CLR
01:06 15.8 °C 11.8 °C 1017.8 hPa Calm     77 % 0.0 mm 0.0 W/m2 CLR
01:11 15.8 °C 11.6 °C 1017.8 hPa Calm     76 % 0.0 mm 0.0 W/m2 CLR
01:16 15.9 °C 11.7 °C 1017.8 hPa Calm     76 % 0.0 mm 0.0 W/m2 CLR
01:21 15.9 °C 11.7 °C 1017.8 hPa Calm     76 % 0.0 mm 0.0 W/m2 CLR
01:26 15.9 °C 11.7 °C 1017.8 hPa Calm     76 % 0.0 mm 0.0 W/m2 CLR
01:31 15.8 °C 11.8 °C 1017.8 hPa Calm     77 % 0.0 mm 0.0 W/m2 CLR
01:36 15.7 °C 11.8 °C 1017.8 hPa Calm     78 % 0.0 mm 0.0 W/m2 CLR
01:41 15.6 °C 11.7 °C 1017.8 hPa Calm     78 % 0.0 mm 0.0 W/m2 CLR
01:46 15.4 °C 11.8 °C 1017.8 hPa Calm     79 % 0.0 mm 0.0 W/m2 CLR
01:51 15.3 °C 11.7 °C 1017.8 hPa Calm     79 % 0.0 mm 0.0 W/m2 CLR
01:56 15.2 °C 11.6 °C 1017.8 hPa Calm     79 % 0.0 mm 0.0 W/m2 CLR
02:01 15.2 °C 11.7 °C 1017.8 hPa Calm     80 % 0.0 mm 0.0 W/m2 CLR
02:06 15.1 °C 11.7 °C 1017.8 hPa Calm     80 % 0.0 mm 0.0 W/m2 CLR
02:11 15.1 °C 11.7 °C 1017.8 hPa Calm     80 % 0.0 mm 0.0 W/m2 CLR
02:16 15.1 °C 11.6 °C 1017.8 hPa Calm     80 % 0.0 mm 0.0 W/m2 CLR
02:21 14.9 °C 11.4 °C 1017.8 hPa Calm     80 % 0.0 mm 0.0 W/m2 CLR
02:26 14.7 °C 11.4 °C 1017.8 hPa Calm     81 % 0.0 mm 0.0 W/m2 CLR
02:31 14.5 °C 11.4 °C 1017.8 hPa Calm     82 % 0.0 mm 0.0 W/m2 CLR
02:36 14.4 °C 11.6 °C 1017.8 hPa Calm     83 % 0.0 mm 0.0 W/m2 CLR
02:41 14.3 °C 11.4 °C 1017.8 hPa Calm     83 % 0.0 mm 0.0 W/m2 CLR
02:46 14.2 °C 11.4 °C 1017.8 hPa Calm     83 % 0.0 mm 0.0 W/m2 CLR
02:51 14.1 °C 11.3 °C 1017.8 hPa Calm     83 % 0.0 mm 0.0 W/m2 CLR
02:56 14.1 °C 11.4 °C 1017.8 hPa Calm     84 % 0.0 mm 0.0 W/m2 CLR
03:01 14.1 °C 11.6 °C 1017.8 hPa Calm     85 % 0.0 mm 0.0 W/m2 CLR
03:06 14.1 °C 11.4 °C 1017.8 hPa Calm     84 % 0.0 mm 0.0 W/m2 CLR
03:11 14.0 °C 11.3 °C 1017.8 hPa Calm     84 % 0.0 mm 0.0 W/m2 CLR
03:16 14.0 °C 11.3 °C 1017.8 hPa Calm     84 % 0.0 mm 0.0 W/m2 CLR
03:21 13.9 °C 11.3 °C 1017.8 hPa Calm     84 % 0.0 mm 0.0 W/m2 CLR
03:26 13.9 °C 11.3 °C 1018.2 hPa Calm     84 % 0.0 mm 0.0 W/m2 CLR
03:31 13.9 °C 11.2 °C 1018.2 hPa Calm     84 % 0.0 mm 0.0 W/m2 CLR
03:36 13.9 °C 11.4 °C 1018.2 hPa Calm     85 % 0.0 mm 0.0 W/m2 CLR
03:41 13.8 °C 11.3 °C 1018.2 hPa Calm     85 % 0.0 mm 0.0 W/m2 CLR
03:46 13.8 °C 11.2 °C 1018.2 hPa Calm     84 % 0.0 mm 0.0 W/m2 CLR
03:51 13.8 °C 11.2 °C 1018.2 hPa Calm     84 % 0.0 mm 0.0 W/m2 CLR
03:56 13.9 °C 11.2 °C 1018.2 hPa Calm     84 % 0.0 mm 0.0 W/m2 CLR
04:01 13.9 °C 11.2 °C 1018.2 hPa Calm     84 % 0.0 mm 0.0 W/m2 CLR
04:06 14.0 °C 11.3 °C 1018.2 hPa Calm     84 % 0.0 mm 0.0 W/m2 CLR
04:11 14.1 °C 11.4 °C 1018.2 hPa Calm     84 % 0.0 mm 0.0 W/m2 CLR
04:16 14.2 °C 11.6 °C 1018.2 hPa Calm     84 % 0.0 mm 0.0 W/m2 CLR
04:21 14.3 °C 11.6 °C 1018.2 hPa Calm     84 % 0.0 mm 0.0 W/m2 CLR
04:26 14.3 °C 11.4 °C 1018.2 hPa Calm     83 % 0.0 mm 0.0 W/m2 CLR
04:31 14.3 °C 11.4 °C 1018.2 hPa Calm     83 % 0.0 mm 0.0 W/m2 CLR
04:36 14.3 °C 11.5 °C 1018.5 hPa Calm     83 % 0.0 mm 0.0 W/m2 CLR
04:41 14.4 °C 11.6 °C 1018.5 hPa Calm     83 % 0.0 mm 0.0 W/m2 CLR
04:46 14.4 °C 11.6 °C 1018.5 hPa Calm     83 % 0.0 mm 0.0 W/m2 CLR
04:51 14.4 °C 11.6 °C 1018.5 hPa Calm     83 % 0.0 mm 0.0 W/m2 CLR
04:56 14.4 °C 11.6 °C 1018.5 hPa Calm     83 % 0.0 mm 0.0 W/m2 CLR
05:01 14.4 °C 11.6 °C 1018.5 hPa Calm     83 % 0.0 mm 0.0 W/m2 CLR
05:06 14.5 °C 11.7 °C 1018.5 hPa Calm     83 % 0.0 mm 0.0 W/m2 CLR
05:11 14.6 °C 11.8 °C 1018.5 hPa Calm     83 % 0.0 mm 0.0 W/m2 CLR
05:16 14.7 °C 11.8 °C 1018.5 hPa Calm     83 % 0.0 mm 0.0 W/m2 CLR
05:21 14.7 °C 11.9 °C 1018.5 hPa Calm     83 % 0.0 mm 0.0 W/m2 CLR
05:26 14.7 °C 11.8 °C 1018.5 hPa Calm     83 % 0.0 mm 0.0 W/m2 CLR
05:31 14.6 °C 11.8 °C 1018.5 hPa Calm     83 % 0.0 mm 0.0 W/m2 CLR
05:36 14.5 °C 11.7 °C 1018.5 hPa Calm     83 % 0.0 mm 0.0 W/m2 CLR
05:41 14.5 °C 11.8 °C 1018.5 hPa Calm     84 % 0.0 mm 0.0 W/m2 CLR
05:46 14.5 °C 11.7 °C 1018.5 hPa Calm     83 % 0.0 mm 0.0 W/m2 CLR
05:51 14.6 °C 11.7 °C 1018.5 hPa Calm     83 % 0.0 mm 0.0 W/m2 CLR
05:56 14.4 °C 11.4 °C 1018.5 hPa Calm     82 % 0.0 mm 0.0 W/m2 CLR
06:01 14.3 °C 11.2 °C 1018.5 hPa Calm     82 % 0.0 mm 0.0 W/m2 CLR
06:06 14.2 °C 11.4 °C 1018.5 hPa Calm     83 % 0.0 mm 0.0 W/m2 CLR
06:11 14.1 °C 11.4 °C 1018.5 hPa Calm     84 % 0.0 mm 0.0 W/m2 CLR
06:16 14.1 °C 11.3 °C 1018.5 hPa Calm     83 % 0.0 mm 0.0 W/m2 CLR
06:21 14.1 °C 11.2 °C 1018.5 hPa Calm     83 % 0.0 mm 0.0 W/m2 OVC
06:26 14.0 °C 11.2 °C 1018.5 hPa Calm     83 % 0.0 mm 0.0 W/m2 OVC
06:31 14.0 °C 11.3 °C 1018.8 hPa Calm     84 % 0.0 mm 0.0 W/m2 OVC
06:36 13.9 °C 11.2 °C 1018.8 hPa Calm     84 % 0.0 mm 5.0 W/m2 OVC
06:41 13.8 °C 11.1 °C 1018.8 hPa Calm     84 % 0.0 mm 7.0 W/m2 BKN
06:46 13.7 °C 11.2 °C 1018.8 hPa Calm     85 % 0.0 mm 11.0 W/m2 BKN
06:51 13.6 °C 11.1 °C 1018.8 hPa Calm     85 % 0.0 mm 16.0 W/m2 BKN
06:56 13.4 °C 10.9 °C 1018.8 hPa Calm     85 % 0.0 mm 21.0 W/m2 BKN
07:01 13.5 °C 11.2 °C 1018.8 hPa Calm     86 % 0.0 mm 26.0 W/m2 BKN
07:06 13.5 °C 11.2 °C 1018.8 hPa Calm     86 % 0.0 mm 32.0 W/m2 BKN
07:11 13.6 °C 11.3 °C 1018.8 hPa Calm     86 % 0.0 mm 44.0 W/m2 BKN
07:17 13.7 °C 11.4 °C 1018.8 hPa Calm     86 % 0.0 mm 51.0 W/m2 SCT
07:22 13.9 °C 11.6 °C 1019.2 hPa Calm     86 % 0.0 mm 58.0 W/m2 SCT
07:27 14.1 °C 11.6 °C 1019.2 hPa Calm     85 % 0.0 mm 69.0 W/m2 FEW
07:32 14.2 °C 11.7 °C 1019.2 hPa Calm     85 % 0.0 mm 81.0 W/m2 FEW
07:37 14.4 °C 11.9 °C 1019.2 hPa Calm     85 % 0.0 mm 91.0 W/m2 FEW
07:42 14.6 °C 12.1 °C 1019.2 hPa Calm     85 % 0.0 mm 107.0 W/m2 CLR
07:47 14.8 °C 12.3 °C 1019.2 hPa Calm     85 % 0.0 mm 123.0 W/m2 CLR
07:52 15.2 °C 12.6 °C 1019.2 hPa Calm     84 % 0.0 mm 139.0 W/m2 CLR
07:57 15.6 °C 12.6 °C 1019.2 hPa Calm     82 % 0.0 mm 158.0 W/m2 CLR
08:02 15.9 °C 12.5 °C 1019.2 hPa Calm     80 % 0.0 mm 172.0 W/m2 CLR
08:07 16.2 °C 12.8 °C 1019.2 hPa Calm     80 % 0.0 mm 229.0 W/m2 CLR
08:12 16.6 °C 12.9 °C 1019.2 hPa Calm     79 % 0.0 mm 255.0 W/m2 CLR
08:17 17.2 °C 13.1 °C 1019.2 hPa Calm     77 % 0.0 mm 130.0 W/m2 CLR
08:22 17.6 °C 12.9 °C 1019.5 hPa Calm     74 % 0.0 mm 127.0 W/m2 CLR
08:27 17.8 °C 12.9 °C 1019.5 hPa Calm     73 % 0.0 mm 292.0 W/m2 CLR
08:32 18.2 °C 13.1 °C 1019.5 hPa Calm     72 % 0.0 mm 218.0 W/m2 CLR
08:37 18.3 °C 13.0 °C 1019.5 hPa Calm     71 % 0.0 mm 134.0 W/m2 CLR
08:42 18.3 °C 13.0 °C 1019.5 hPa Calm     71 % 0.0 mm 121.0 W/m2 CLR
08:47 18.3 °C 13.2 °C 1019.5 hPa SSW 6.4 km/h 6.4 km/h 72 % 0.0 mm 114.0 W/m2 CLR
08:52 18.4 °C 13.4 °C 1019.5 hPa Calm     73 % 0.0 mm 316.0 W/m2 CLR
08:57 18.8 °C 14.1 °C 1019.5 hPa WSW 5.6 km/h 5.6 km/h 74 % 0.0 mm 364.0 W/m2 CLR
09:02 19.1 °C 14.1 °C 1019.5 hPa West 7.4 km/h 7.4 km/h 73 % 0.0 mm 403.0 W/m2 CLR
09:07 19.3 °C 14.3 °C 1019.5 hPa Calm     73 % 0.0 mm 455.0 W/m2 CLR
09:12 19.6 °C 14.4 °C 1019.5 hPa WSW 3.7 km/h 3.7 km/h 72 % 0.0 mm 504.0 W/m2 CLR
09:17 19.9 °C 14.5 °C 1019.5 hPa West 5.6 km/h 5.6 km/h 71 % 0.0 mm 371.0 W/m2 CLR
09:22 19.9 °C 14.5 °C 1019.5 hPa SW 3.7 km/h   71 % 0.0 mm 274.0 W/m2 CLR
09:27 19.9 °C 14.3 °C 1019.5 hPa WSW 7.4 km/h 7.4 km/h 70 % 0.0 mm 251.0 W/m2 CLR
09:32 19.9 °C 14.5 °C 1019.5 hPa WNW 9.3 km/h 9.3 km/h 71 % 0.0 mm 299.0 W/m2 CLR
09:37 19.9 °C 14.5 °C 1019.5 hPa WNW 1.9 km/h   71 % 0.0 mm 269.0 W/m2 CLR
09:42 20.0 °C 14.3 °C 1019.5 hPa WSW 6.4 km/h 6.4 km/h 70 % 0.0 mm 374.0 W/m2 CLR
09:47 20.2 °C 14.5 °C 1019.5 hPa West 8.0 km/h 8.0 km/h 70 % 0.0 mm 294.0 W/m2 CLR
09:52 20.2 °C 14.8 °C 1019.5 hPa NW 7.4 km/h 7.4 km/h 71 % 0.0 mm 522.0 W/m2 CLR
09:57 20.4 °C 14.6 °C 1019.5 hPa West 13.0 km/h 13.0 km/h 69 % 0.0 mm 529.0 W/m2 CLR
10:02 20.4 °C 14.6 °C 1019.5 hPa West 9.3 km/h 9.3 km/h 69 % 0.0 mm 538.0 W/m2 CLR
10:07 20.7 °C 14.6 °C 1019.5 hPa WNW 11.3 km/h 11.3 km/h 68 % 0.0 mm 547.0 W/m2 CLR
10:12 20.9 °C 14.8 °C 1019.2 hPa West 6.4 km/h 6.4 km/h 68 % 0.0 mm 555.0 W/m2 CLR
10:17 21.1 °C 14.7 °C 1019.5 hPa WNW 6.4 km/h 6.4 km/h 67 % 0.0 mm 580.0 W/m2 CLR
10:22 21.2 °C 14.6 °C 1019.5 hPa Calm     66 % 0.0 mm 596.0 W/m2 CLR
10:27 21.5 °C 14.7 °C 1019.5 hPa SW 5.6 km/h 5.6 km/h 65 % 0.0 mm 570.0 W/m2 CLR
10:32 21.7 °C 14.6 °C 1019.2 hPa WNW 5.6 km/h 5.6 km/h 64 % 0.0 mm 633.0 W/m2 CLR
10:37 21.8 °C 14.7 °C 1019.5 hPa Calm     64 % 0.0 mm 638.0 W/m2 CLR
10:42 22.2 °C 14.8 °C 1019.2 hPa SSW 5.6 km/h 5.6 km/h 63 % 0.0 mm 647.0 W/m2 CLR
10:47 22.2 °C 14.6 °C 1019.2 hPa Calm     62 % 0.0 mm 691.0 W/m2 CLR
10:52 22.7 °C 15.0 °C 1019.2 hPa Calm     62 % 0.0 mm 728.0 W/m2 CLR
10:57 23.3 °C 15.1 °C 1019.2 hPa NNW 1.6 km/h 1.6 km/h 60 % 0.0 mm 682.0 W/m2 CLR
11:02 23.4 °C 14.7 °C 1019.2 hPa Calm     58 % 0.0 mm 698.0 W/m2 CLR
11:07 23.6 °C 15.1 °C 1019.2 hPa Calm     59 % 0.0 mm 687.0 W/m2 CLR
11:12 23.9 °C 14.8 °C 1019.2 hPa Calm     57 % 0.0 mm 744.0 W/m2 CLR
11:17 24.1 °C 15.1 °C 1019.2 hPa Calm   0.6 km/h 57 % 0.0 mm 752.0 W/m2 CLR
11:22 24.3 °C 14.9 °C 1019.2 hPa NNE 8.0 km/h 8.0 km/h 56 % 0.0 mm 788.0 W/m2 CLR
11:27 24.2 °C 14.6 °C 1019.2 hPa NNE 7.4 km/h 7.4 km/h 55 % 0.0 mm 846.0 W/m2 CLR
11:32 24.0 °C 14.7 °C 1019.2 hPa Calm     56 % 0.0 mm 842.0 W/m2 CLR
11:37 24.2 °C 14.3 °C 1018.8 hPa East 9.3 km/h 9.3 km/h 54 % 0.0 mm 860.0 W/m2 CLR
11:38 24.2 °C 14.3 °C 1019.2 hPa East 9.3 km/h 9.3 km/h 54 % 0.0 mm 860.0 W/m2 CLR
11:43 24.3 °C 14.4 °C 1019.2 hPa Calm     54 % 0.0 mm 907.0 W/m2 CLR
11:48 24.3 °C 14.4 °C 1018.8 hPa Calm     54 % 0.0 mm 904.0 W/m2 CLR
11:53 24.4 °C 14.8 °C 1018.8 hPa Calm     55 % 0.0 mm 854.0 W/m2 CLR
11:58 24.8 °C 15.1 °C 1018.8 hPa Calm     55 % 0.0 mm 868.0 W/m2 CLR
12:03 25.0 °C 15.1 °C 1018.8 hPa Calm     54 % 0.0 mm 860.0 W/m2 CLR
12:08 25.1 °C 14.8 °C 1018.8 hPa Calm     53 % 0.0 mm 860.0 W/m2 CLR
12:13 25.1 °C 13.9 °C 1018.8 hPa ENE 1.9 km/h 1.9 km/h 50 % 0.0 mm 849.0 W/m2 CLR
12:18 25.4 °C 13.6 °C 1018.8 hPa NE 9.3 km/h 9.3 km/h 48 % 0.0 mm 851.0 W/m2 CLR
12:23 25.4 °C 13.3 °C 1018.8 hPa ENE 9.3 km/h 9.3 km/h 47 % 0.0 mm 851.0 W/m2 CLR
12:28 25.2 °C 13.4 °C 1018.5 hPa NE 3.7 km/h   48 % 0.0 mm 868.0 W/m2 CLR
12:33 25.4 °C 13.3 °C 1018.5 hPa ENE 7.4 km/h 7.4 km/h 47 % 0.0 mm 904.0 W/m2 CLR
12:38 25.6 °C 13.1 °C 1018.5 hPa NNE 5.6 km/h 5.6 km/h 46 % 0.0 mm 891.0 W/m2 CLR
12:43 25.8 °C 13.3 °C 1018.5 hPa ENE 11.1 km/h   46 % 0.0 mm 889.0 W/m2 CLR
12:48 25.8 °C 13.0 °C 1018.5 hPa NE 12.9 km/h 12.9 km/h 45 % 0.0 mm 954.0 W/m2 CLR
12:53 26.1 °C 13.2 °C 1018.5 hPa NE 4.8 km/h 4.8 km/h 45 % 0.0 mm 947.0 W/m2 CLR
12:58 26.3 °C 13.1 °C 1018.5 hPa NE 3.7 km/h   44 % 0.0 mm 995.0 W/m2 CLR
13:03 26.4 °C 13.5 °C 1018.5 hPa NNE 1.6 km/h 1.6 km/h 45 % 0.0 mm 979.0 W/m2 CLR
13:08 26.6 °C 13.7 °C 1018.2 hPa NE 16.7 km/h 16.7 km/h 45 % 0.0 mm 970.0 W/m2 CLR
13:13 26.4 °C 13.5 °C 1018.2 hPa East 14.8 km/h 14.8 km/h 45 % 0.0 mm 935.0 W/m2 CLR
13:18 26.4 °C 13.6 °C 1018.2 hPa Calm     45 % 0.0 mm 947.0 W/m2 CLR
13:23 26.4 °C 13.6 °C 1018.2 hPa Calm     45 % 0.0 mm 977.0 W/m2 CLR
13:28 26.8 °C 13.6 °C 1018.2 hPa NNE 14.8 km/h 14.8 km/h 44 % 0.0 mm 974.0 W/m2 CLR
13:33 26.8 °C 13.5 °C 1018.2 hPa North 18.5 km/h 18.5 km/h 44 % 0.0 mm 949.0 W/m2 CLR
13:34 26.7 °C 13.4 °C 1018.2 hPa NNW 11.1 km/h 11.1 km/h 44 % 0.0 mm 954.0 W/m2 CLR
13:39 26.8 °C 13.2 °C 1017.8 hPa North 14.8 km/h 14.8 km/h 43 % 0.0 mm 977.0 W/m2 CLR
13:44 26.9 °C 13.3 °C 1017.8 hPa North 7.4 km/h 7.4 km/h 43 % 0.0 mm 954.0 W/m2 CLR
13:49 27.0 °C 13.0 °C 1017.8 hPa Calm     42 % 0.0 mm 316.0 W/m2 CLR
13:54 27.0 °C 13.0 °C 1017.8 hPa ESE 4.8 km/h 4.8 km/h 42 % 0.0 mm 821.0 W/m2 CLR
13:59 27.1 °C 13.1 °C 1017.5 hPa East 13.0 km/h 13.0 km/h 42 % 0.0 mm 942.0 W/m2 CLR
14:04 27.6 °C 13.2 °C 1017.5 hPa NE 9.3 km/h 9.3 km/h 41 % 0.0 mm 963.0 W/m2 CLR
14:09 27.8 °C 13.0 °C 1017.5 hPa Calm     40 % 0.0 mm 969.0 W/m2 CLR
14:14 27.8 °C 12.9 °C 1017.5 hPa Calm     40 % 0.0 mm 954.0 W/m2 CLR
14:19 27.8 °C 13.0 °C 1017.2 hPa Calm     40 % 0.0 mm 940.0 W/m2 CLR
14:24 27.8 °C 12.6 °C 1017.2 hPa ENE 18.5 km/h 18.5 km/h 39 % 0.0 mm 788.0 W/m2 CLR
14:29 27.8 °C 12.2 °C 1017.2 hPa NE 9.7 km/h 9.7 km/h 38 % 0.0 mm 1000.0 W/m2 CLR
14:34 28.1 °C 12.4 °C 1017.2 hPa ENE 5.6 km/h 5.6 km/h 38 % 0.0 mm 997.0 W/m2 CLR
14:39 28.1 °C 12.0 °C 1016.8 hPa SE 13.0 km/h 13.0 km/h 37 % 0.0 mm 336.0 W/m2 CLR
14:44 27.9 °C 12.3 °C 1016.8 hPa NE 13.0 km/h 13.0 km/h 38 % 0.0 mm 977.0 W/m2 CLR
14:49 28.3 °C 11.8 °C 1016.8 hPa NE 9.7 km/h 9.7 km/h 36 % 0.0 mm 1023.0 W/m2 CLR
14:54 28.5 °C 11.6 °C 1016.8 hPa NE 18.5 km/h 18.5 km/h 35 % 0.0 mm 896.0 W/m2 CLR
14:55 28.4 °C 11.5 °C 1016.8 hPa ENE 7.4 km/h 7.4 km/h 35 % 0.0 mm 896.0 W/m2 CLR
15:00 28.2 °C 11.3 °C 1016.8 hPa ENE 13.0 km/h 13.0 km/h 35 % 0.0 mm 197.0 W/m2 CLR
15:05 27.8 °C 11.4 °C 1016.5 hPa NE 7.4 km/h 7.4 km/h 36 % 0.0 mm 895.0 W/m2 CLR
15:10 27.7 °C 10.9 °C 1016.5 hPa NE 20.4 km/h 20.4 km/h 35 % 0.0 mm 895.0 W/m2 CLR
15:15 28.1 °C 11.2 °C 1016.5 hPa NNE 13.0 km/h 13.0 km/h 35 % 0.0 mm 942.0 W/m2 CLR
15:20 28.4 °C 11.0 °C 1016.5 hPa NNE 5.6 km/h 5.6 km/h 34 % 0.0 mm 939.0 W/m2 CLR
15:25 28.5 °C 11.1 °C 1016.5 hPa ESE 14.5 km/h 14.5 km/h 34 % 0.0 mm 220.0 W/m2 CLR
15:30 28.4 °C 11.1 °C 1016.1 hPa SE 11.3 km/h 11.3 km/h 34 % 0.0 mm 944.0 W/m2 CLR
15:35 28.3 °C 10.9 °C 1016.1 hPa SE 18.5 km/h 18.5 km/h 34 % 0.0 mm 925.0 W/m2 CLR
15:40 28.4 °C 10.6 °C 1016.1 hPa SSW 14.8 km/h 14.8 km/h 33 % 0.0 mm 965.0 W/m2 CLR
15:45 28.8 °C 10.9 °C 1016.1 hPa Calm     33 % 0.0 mm 984.0 W/m2 CLR
15:50 29.2 °C 10.8 °C 1016.1 hPa SE 11.1 km/h 11.1 km/h 32 % 0.0 mm 965.0 W/m2 CLR
15:55 28.6 °C 10.3 °C 1015.8 hPa East 14.8 km/h 14.8 km/h 32 % 0.0 mm 315.0 W/m2 CLR
16:00 28.2 °C 10.4 °C 1015.8 hPa SSE 18.5 km/h 18.5 km/h 33 % 0.0 mm 960.0 W/m2 CLR
16:05 27.8 °C 10.9 °C 1016.1 hPa SE 18.5 km/h 18.5 km/h 35 % 0.0 mm 392.0 W/m2 CLR
16:10 27.7 °C 11.3 °C 1015.8 hPa SE 14.8 km/h 14.8 km/h 36 % 0.0 mm 485.0 W/m2 CLR
16:16 27.9 °C 11.4 °C 1015.8 hPa SE 14.5 km/h 14.5 km/h 36 % 0.0 mm 867.0 W/m2 CLR
16:21 28.2 °C 11.7 °C 1016.1 hPa ESE 29.0 km/h 29.0 km/h 36 % 0.0 mm 853.0 W/m2 CLR
16:26 27.8 °C 11.8 °C 1015.8 hPa East 20.4 km/h 20.4 km/h 37 % 0.0 mm 858.0 W/m2 CLR
16:31 28.0 °C 11.9 °C 1015.8 hPa ESE 18.5 km/h 18.5 km/h 37 % 0.0 mm 826.0 W/m2 CLR
16:36 28.2 °C 11.7 °C 1015.8 hPa SE 14.8 km/h 14.8 km/h 36 % 0.0 mm 807.0 W/m2 CLR
16:41 28.2 °C 11.7 °C 1015.8 hPa SE 14.8 km/h 14.8 km/h 36 % 0.0 mm 795.0 W/m2 CLR
16:46 27.8 °C 11.8 °C 1015.8 hPa SSE 14.8 km/h 14.8 km/h 37 % 0.0 mm 793.0 W/m2 CLR
16:51 27.3 °C 11.7 °C 1015.8 hPa SE 24.1 km/h 24.1 km/h 38 % 0.0 mm 206.0 W/m2 CLR
16:56 26.9 °C 11.8 °C 1015.8 hPa South 22.5 km/h 22.5 km/h 39 % 0.0 mm 239.0 W/m2 CLR
17:01 26.9 °C 11.8 °C 1015.5 hPa SSE 16.7 km/h 16.7 km/h 39 % 0.0 mm 262.0 W/m2 CLR
17:06 26.6 °C 11.9 °C 1015.5 hPa SSE 31.5 km/h 31.5 km/h 40 % 0.0 mm 355.0 W/m2 CLR
17:11 26.6 °C 12.2 °C 1015.8 hPa South 25.9 km/h 25.9 km/h 41 % 0.0 mm 700.0 W/m2 CLR
17:16 26.7 °C 13.4 °C 1015.8 hPa SSW 25.9 km/h 25.9 km/h 44 % 0.0 mm 744.0 W/m2 CLR
17:21 26.3 °C 12.4 °C 1015.8 hPa South 25.9 km/h 25.9 km/h 42 % 0.0 mm 701.0 W/m2 CLR
17:26 26.2 °C 12.6 °C 1015.8 hPa South 31.5 km/h 31.5 km/h 43 % 0.0 mm 715.0 W/m2 CLR
17:31 26.2 °C 12.7 °C 1015.8 hPa South 31.5 km/h 31.5 km/h 43 % 0.0 mm 724.0 W/m2 CLR
17:36 26.1 °C 12.8 °C 1016.1 hPa South 31.5 km/h 31.5 km/h 44 % 0.0 mm 204.0 W/m2 CLR
17:41 25.6 °C 12.1 °C 1016.1 hPa SSW 25.9 km/h 25.9 km/h 43 % 0.0 mm 195.0 W/m2 CLR
17:46 25.4 °C 12.2 °C 1016.5 hPa SSW 33.3 km/h 33.3 km/h 44 % 0.0 mm 192.0 W/m2 CLR
17:51 25.3 °C 12.2 °C 1016.5 hPa South 18.5 km/h 18.5 km/h 44 % 0.0 mm 176.0 W/m2 CLR
17:56 25.4 °C 12.3 °C 1016.5 hPa South 18.5 km/h 18.5 km/h 44 % 0.0 mm 160.0 W/m2 CLR
18:01 25.5 °C 12.3 °C 1016.5 hPa SSE 20.4 km/h 20.4 km/h 44 % 0.0 mm 156.0 W/m2 CLR
18:06 25.3 °C 12.2 °C 1016.5 hPa SSW 20.4 km/h 20.4 km/h 44 % 0.0 mm 169.0 W/m2 CLR
18:11 25.3 °C 12.2 °C 1016.5 hPa SE 18.5 km/h 18.5 km/h 44 % 0.0 mm 209.0 W/m2 CLR
18:16 25.5 °C 12.3 °C 1016.5 hPa SSW 18.5 km/h 18.5 km/h 44 % 0.0 mm 473.0 W/m2 CLR
18:21 25.6 °C 12.4 °C 1016.5 hPa South 22.2 km/h 22.2 km/h 44 % 0.0 mm 244.0 W/m2 CLR
18:26 25.3 °C 12.5 °C 1016.5 hPa South 22.2 km/h 22.2 km/h 45 % 0.0 mm 457.0 W/m2 CLR
18:31 25.2 °C 13.1 °C 1016.5 hPa South 18.5 km/h 18.5 km/h 47 % 0.0 mm 148.0 W/m2 CLR
18:36 25.1 °C 12.9 °C 1016.8 hPa SSW 16.7 km/h 16.7 km/h 47 % 0.0 mm 88.0 W/m2 CLR
18:41 24.8 °C 12.8 °C 1016.8 hPa SSE 13.0 km/h 13.0 km/h 47 % 0.0 mm 98.0 W/m2 CLR
18:46 24.6 °C 12.8 °C 1016.5 hPa SSW 18.5 km/h 18.5 km/h 48 % 0.0 mm 162.0 W/m2 CLR
18:51 24.5 °C 12.8 °C 1016.5 hPa SSW 20.4 km/h 20.4 km/h 48 % 0.0 mm 216.0 W/m2 CLR
18:56 24.4 °C 12.7 °C 1016.8 hPa South 20.4 km/h 20.4 km/h 48 % 0.0 mm 171.0 W/m2 CLR
19:01 24.3 °C 12.6 °C 1016.8 hPa SSE 18.5 km/h 18.5 km/h 48 % 0.0 mm 162.0 W/m2 CLR
19:06 24.2 °C 12.5 °C 1016.8 hPa SSW 18.5 km/h 18.5 km/h 48 % 0.0 mm 127.0 W/m2 CLR
19:11 24.2 °C 12.4 °C 1016.8 hPa SSW 24.1 km/h 24.1 km/h 48 % 0.0 mm 93.0 W/m2 CLR
19:16 23.9 °C 12.6 °C 1016.8 hPa South 18.5 km/h 18.5 km/h 49 % 0.0 mm 70.0 W/m2 CLR
19:21 23.8 °C 12.7 °C 1017.2 hPa South 20.4 km/h 20.4 km/h 50 % 0.0 mm 49.0 W/m2 FEW
19:26 23.7 °C 12.6 °C 1017.2 hPa SSW 13.0 km/h 13.0 km/h 50 % 0.0 mm 46.0 W/m2 SCT
19:31 23.6 °C 12.6 °C 1017.2 hPa South 13.0 km/h 13.0 km/h 50 % 0.0 mm 46.0 W/m2 SCT
19:36 23.6 °C 12.9 °C 1017.2 hPa SSE 5.6 km/h 5.6 km/h 51 % 0.0 mm 44.0 W/m2 SCT
19:41 23.5 °C 12.8 °C 1017.5 hPa SSW 7.4 km/h 7.4 km/h 51 % 0.0 mm 40.0 W/m2 BKN
19:46 23.5 °C 13.1 °C 1017.5 hPa SSW 5.6 km/h 5.6 km/h 52 % 0.0 mm 33.0 W/m2 BKN
19:51 23.4 °C 13.0 °C 1017.5 hPa WSW 5.6 km/h 5.6 km/h 52 % 0.0 mm 30.0 W/m2 BKN
19:56 23.4 °C 13.3 °C 1017.5 hPa SSW 9.3 km/h 9.3 km/h 53 % 0.0 mm 28.0 W/m2 BKN
20:01 23.4 °C 13.3 °C 1017.5 hPa South 9.7 km/h 9.7 km/h 53 % 0.0 mm 28.0 W/m2 BKN
20:06 23.4 °C 13.6 °C 1017.5 hPa South 7.4 km/h 7.7 km/h 54 % 0.0 mm 35.0 W/m2 BKN
20:11 23.4 °C 13.6 °C 1017.5 hPa South 9.7 km/h 9.7 km/h 54 % 0.0 mm 47.0 W/m2 BKN
20:16 23.4 °C 13.8 °C 1017.2 hPa SSW 9.3 km/h 9.3 km/h 55 % 0.0 mm 62.0 W/m2 BKN
20:21 23.4 °C 13.9 °C 1017.2 hPa SSW 7.4 km/h 7.4 km/h 55 % 0.0 mm 69.0 W/m2 SCT
20:26 23.5 °C 13.9 °C 1017.2 hPa Calm     55 % 0.0 mm 95.0 W/m2 CLR
20:31 23.5 °C 14.2 °C 1017.2 hPa Calm     56 % 0.0 mm 69.0 W/m2 FEW
20:36 23.5 °C 14.2 °C 1016.8 hPa SSW 9.7 km/h 9.7 km/h 56 % 0.0 mm 62.0 W/m2 SCT
20:41 23.5 °C 13.7 °C 1016.8 hPa South 13.0 km/h 13.0 km/h 54 % 0.0 mm 58.0 W/m2 SCT
20:46 23.5 °C 13.7 °C 1016.5 hPa South 11.1 km/h 11.1 km/h 54 % 0.0 mm 56.0 W/m2 SCT
20:51 23.5 °C 13.7 °C 1016.8 hPa South 13.0 km/h 13.0 km/h 54 % 0.0 mm 46.0 W/m2 SCT
20:56 23.4 °C 13.3 °C 1016.8 hPa South 13.0 km/h 13.0 km/h 53 % 0.0 mm 37.0 W/m2 BKN
21:01 23.4 °C 13.3 °C 1016.8 hPa South 9.7 km/h 9.7 km/h 53 % 0.0 mm 33.0 W/m2 BKN
21:07 23.4 °C 13.3 °C 1016.8 hPa South 11.1 km/h 11.1 km/h 53 % 0.0 mm 26.0 W/m2 BKN
21:12 23.4 °C 13.6 °C 1016.8 hPa SW 7.4 km/h 7.4 km/h 54 % 0.0 mm 16.0 W/m2 BKN
21:17 23.3 °C 13.4 °C 1017.2 hPa SW 3.7 km/h 3.9 km/h 54 % 0.0 mm 9.0 W/m2 BKN
21:22 23.2 °C 13.4 °C 1017.2 hPa SSW 7.4 km/h 7.4 km/h 54 % 0.0 mm 5.0 W/m2 OVC
21:27 23.2 °C 13.6 °C 1017.2 hPa Calm     55 % 0.0 mm 0.0 W/m2 OVC
21:32 23.2 °C 13.3 °C 1017.2 hPa Calm     54 % 0.0 mm 0.0 W/m2 OVC
21:37 23.1 °C 13.6 °C 1017.2 hPa Calm     55 % 0.0 mm 0.0 W/m2 CLR
21:42 23.1 °C 13.2 °C 1017.2 hPa Calm     54 % 0.0 mm 0.0 W/m2 CLR
21:47 22.9 °C 13.1 °C 1017.5 hPa Calm     54 % 0.0 mm 0.0 W/m2 CLR
21:52 22.9 °C 13.1 °C 1017.5 hPa Calm     54 % 0.0 mm 0.0 W/m2 CLR
21:57 22.8 °C 13.1 °C 1017.5 hPa Calm     54 % 0.0 mm 0.0 W/m2 CLR
22:02 22.8 °C 12.7 °C 1017.5 hPa Calm     53 % 0.0 mm 0.0 W/m2 CLR
22:07 22.8 °C 12.7 °C 1017.5 hPa Calm     53 % 0.0 mm 0.0 W/m2 CLR
22:12 22.7 °C 12.7 °C 1017.5 hPa Calm     53 % 0.0 mm 0.0 W/m2 CLR
22:17 22.6 °C 12.8 °C 1017.5 hPa Calm     54 % 0.0 mm 0.0 W/m2 CLR
22:22 22.4 °C 12.6 °C 1017.8 hPa Calm     54 % 0.0 mm 0.0 W/m2 CLR
22:27 22.2 °C 12.7 °C 1017.8 hPa Calm     55 % 0.0 mm 0.0 W/m2 CLR
22:32 22.0 °C 12.3 °C 1017.8 hPa Calm     54 % 0.0 mm 0.0 W/m2 CLR
22:33 21.9 °C 12.2 °C 1017.8 hPa Calm     54 % 0.0 mm 0.0 W/m2 CLR
22:38 21.8 °C 12.1 °C 1017.8 hPa Calm     54 % 0.0 mm 0.0 W/m2 CLR
22:43 21.6 °C 11.9 °C 1018.2 hPa Calm     54 % 0.0 mm 0.0 W/m2 CLR
22:48 21.5 °C 12.1 °C 1018.2 hPa Calm     55 % 0.0 mm 0.0 W/m2 CLR
22:53 21.4 °C 12.0 °C 1018.2 hPa Calm     55 % 0.0 mm 0.0 W/m2 CLR
22:58 21.3 °C 11.9 °C 1018.2 hPa Calm     55 % 0.0 mm 0.0 W/m2 CLR
23:03 21.2 °C 12.1 °C 1018.2 hPa Calm     56 % 0.0 mm 0.0 W/m2 CLR
23:08 21.1 °C 12.0 °C 1018.2 hPa Calm     56 % 0.0 mm 0.0 W/m2 CLR
23:13 21.1 °C 11.9 °C 1018.2 hPa Calm     56 % 0.0 mm 0.0 W/m2 CLR
23:18 21.0 °C 12.2 °C 1018.2 hPa Calm     57 % 0.0 mm 0.0 W/m2 CLR
23:23 21.1 °C 12.4 °C 1018.2 hPa Calm     58 % 0.0 mm 0.0 W/m2 CLR
23:28 21.2 °C 12.6 °C 1018.2 hPa Calm     58 % 0.0 mm 0.0 W/m2 CLR
23:33 21.1 °C 12.2 °C 1018.2 hPa Calm     57 % 0.0 mm 0.0 W/m2 CLR
23:38 20.7 °C 12.4 °C 1018.2 hPa Calm     59 % 0.0 mm 0.0 W/m2 CLR
23:43 20.6 °C 12.6 °C 1018.2 hPa Calm     60 % 0.0 mm 0.0 W/m2 CLR
23:48 20.6 °C 12.5 °C 1018.2 hPa Calm     60 % 0.0 mm 0.0 W/m2 CLR
23:53 20.4 °C 12.6 °C 1018.2 hPa Calm     61 % 0.0 mm 0.0 W/m2 CLR
23:58 20.3 °C 13.1 °C 1018.2 hPa Calm     63 % 0.0 mm 0.0 W/m2 CLR
Lo Temps de Massalio
Compliments of Weather Underground - 1.25 mb